Photometre #720[NE_1.6] FZJ-JOYCE AOT

File : 20220925_720.hum

25/09/2022,06:21:37,TEMP=11.0,BA=5.44,STAT.A=10.5,ExtBa=12.80
25/09/2022,06:25:56,TEMP=11.9,BA=5.44,STAT.A=10.0,ExtBa=12.62
25/09/2022,06:30:34,TEMP=12.1,BA=5.24,STAT.A=10.0,ExtBa=12.56
25/09/2022,06:36:19,TEMP=12.0,BA=5.24,STAT.A=10.0,ExtBa=12.57
25/09/2022,06:43:16,TEMP=12.0,BA=5.24,STAT.A=10.5,ExtBa=12.58
25/09/2022,06:51:53,TEMP=11.8,BA=5.48,STAT.A=10.5,ExtBa=12.63
25/09/2022,07:02:50,TEMP=12.0,BA=5.56,STAT.B=10.5,ExtBa=12.64
25/09/2022,07:08:06,TEMP=12.8,BA=5.56,STAT.A=10.0,ExtBa=12.55
25/09/2022,07:14:01,TEMP=12.7,BA=5.44,STAT.A=10.5,ExtBa=12.59
25/09/2022,07:20:43,TEMP=12.5,BA=5.48,STAT.A=10.5,ExtBa=12.60
25/09/2022,07:28:23,TEMP=12.2,BA=5.48,STAT.A=10.5,ExtBa=12.62
25/09/2022,07:37:16,TEMP=12.1,BA=5.36,STAT.C=10.5,ExtBa=12.69
25/09/2022,07:54:27,TEMP=13.6,BA=5.40,STAT.A=10.5,ExtBa=12.93
25/09/2022,08:00:10,TEMP=13.9,BA=5.44,STAT.A=10.5,ExtBa=13.17
25/09/2022,08:15:26,TEMP=14.3,BA=5.64,STAT.A=10.5,ExtBa=13.52
25/09/2022,08:26:44,TEMP=14.6,BA=5.64,STAT.F,ExtBa=13.65
25/09/2022,08:41:43,TEMP=15.4,BA=5.48,STAT.D=10.5,ExtBa=13.36
25/09/2022,08:56:43,TEMP=15.7,BA=5.64,STAT.D=11.0,ExtBa=13.77
25/09/2022,09:11:43,TEMP=16.8,BA=5.64,STAT.D=11.0,ExtBa=13.80
25/09/2022,09:26:44,TEMP=17.6,BA=5.64,STAT.F,ExtBa=13.82
25/09/2022,09:41:44,TEMP=17.5,BA=5.44,STAT.D=11.0,ExtBa=13.04
25/09/2022,09:56:43,TEMP=17.7,BA=5.64,STAT.D=11.0,ExtBa=13.62
25/09/2022,10:11:43,TEMP=18.9,BA=5.64,STAT.D=11.0,ExtBa=13.46
25/09/2022,10:26:44,TEMP=18.4,BA=5.64,STAT.F,ExtBa=13.29
25/09/2022,10:41:43,TEMP=17.4,BA=5.64,STAT.D=11.0,ExtBa=13.49
25/09/2022,10:56:43,TEMP=17.1,BA=5.64,STAT.D=11.0,ExtBa=13.84
25/09/2022,11:11:43,TEMP=18.7,BA=5.64,STAT.D=11.0,ExtBa=13.90
25/09/2022,11:26:45,TEMP=18.8,BA=5.64,STAT.F,ExtBa=14.12
25/09/2022,11:42:03,TEMP=19.7,BA=5.56,STAT.D=11.0,ExtBa=13.88
25/09/2022,11:56:43,TEMP=18.5,BA=5.64,STAT.D=11.0,ExtBa=13.36
25/09/2022,12:11:43,TEMP=19.1,BA=5.64,STAT.D=11.0,ExtBa=14.32
25/09/2022,12:26:44,TEMP=19.4,BA=5.64,STAT.F,ExtBa=14.26
25/09/2022,12:41:43,TEMP=19.8,BA=5.52,STAT.D=11.0,ExtBa=13.86
25/09/2022,12:56:43,TEMP=18.2,BA=5.64,STAT.D=11.0,ExtBa=13.57
25/09/2022,13:11:43,TEMP=18.3,BA=5.64,STAT.D=11.0,ExtBa=14.33
25/09/2022,13:26:44,TEMP=17.4,BA=5.64,STAT.F,ExtBa=13.65
25/09/2022,13:41:43,TEMP=17.2,BA=5.64,STAT.D=11.0,ExtBa=13.85
25/09/2022,13:56:42,TEMP=16.8,BA=5.64,STAT.D=11.0,ExtBa=13.55
25/09/2022,14:11:42,TEMP=16.1,BA=5.64,STAT.D=11.0,ExtBa=13.77
25/09/2022,14:26:44,TEMP=17.9,BA=5.64,STAT.F,ExtBa=14.19
25/09/2022,14:42:00,TEMP=19.2,BA=5.52,STAT.A=11.0,ExtBa=13.18
25/09/2022,14:53:18,TEMP=19.5,BA=5.64,STAT.A=11.0,ExtBa=14.08
25/09/2022,15:05:46,TEMP=19.8,BA=5.64,STAT.A=11.0,ExtBa=14.17
25/09/2022,15:16:12,TEMP=19.3,BA=5.64,STAT.C=11.0,ExtBa=14.15
25/09/2022,15:27:20,TEMP=18.6,BA=5.52,STAT.A=11.0,ExtBa=12.82
25/09/2022,15:33:57,TEMP=18.7,BA=5.36,STAT.A=10.5,ExtBa=13.01
25/09/2022,15:39:25,TEMP=18.0,BA=5.36,STAT.A=11.0,ExtBa=13.18
25/09/2022,15:45:22,TEMP=18.2,BA=5.44,STAT.A=11.0,ExtBa=13.30
25/09/2022,15:50:38,TEMP=18.4,BA=5.64,STAT.B=11.0,ExtBa=13.33
25/09/2022,16:01:33,TEMP=18.1,BA=5.48,STAT.A=11.0,ExtBa=12.98
25/09/2022,16:10:10,TEMP=17.9,BA=5.52,STAT.A=11.0,ExtBa=13.04
25/09/2022,16:17:07,TEMP=17.6,BA=5.52,STAT.A=11.0,ExtBa=12.95
25/09/2022,16:22:52,TEMP=17.3,BA=5.60,STAT.A=11.0,ExtBa=12.94
25/09/2022,16:27:40,TEMP=17.2,BA=5.60,STAT.A=11.0,ExtBa=12.92
25/09/2022,16:31:49,TEMP=17.0,BA=5.48,STAT.A=11.0,ExtBa=12.91